Yakima, WA

10:47 PM PDT on April 25, 2017 (GMT -0700)
Yakima Air Term-McAllister

Weather History for KYKM - August, 2012

Change the Weather History Date:

Sunday, August 26, 2012

  Actual Average Record
Temperature  
Mean Temperature 68 °F 67 °F  
Max Temperature 89 °F 84 °F 97 °F (2011)
Min Temperature 46 °F 50 °F 38 °F (1955)
Degree Days  
Heating Degree Days 0 1  
Month to date heating degree days 5 19  
Since 1 June heating degree days 125 138  
Since 1 July heating degree days 13 40  
Cooling Degree Days 3 3  
Month to date cooling degree days 237 144  
Year to date cooling degree days 616 424  
Since 1 June cooling degree days 592 404  
Growing Degree Days 17 (Base 50)    
Moisture  
Dew Point 38 °F    
Average Humidity 46    
Maximum Humidity 76    
Minimum Humidity 15    
Precipitation  
Precipitation 0.00 in 0.01 in 0.55 in (1968)
Month to date precipitation T 0.21  
Year to date precipitation 5.48 4.72  
Snow  
Snow 0.00 in 0.00 in 0.00 in (2002)
Month to date snowfall 0.0 0.0  
Year to date snowfall 21.5 8.6  
Since 1 July snowfall 0.0 0.0  
Snow Depth 0.00 in    
Sea Level Pressure  
Sea Level Pressure 29.75 in    
Wind  
Wind Speed 4 mph (WSW)    
Max Wind Speed 10 mph    
Max Gust Speed 18 mph    
Visibility 10 miles    
Events      
T = Trace of Precipitation, MM = Missing Value Source: NWS Daily Summary

Daily Weather History Graph

Daily Weather History Graph

Search for Another Location

Airport or City:

Trip Planner

Search our weather history database for the weather conditions in past years. The results will help you decide how hot, cold, wet, or windy it might be!

Date:

Astronomy

Aug. 26, 2012 Rise Set
Actual Time 6:15 AM PDT 7:51 PM PDT
Civil Twilight 5:43 AM PDT 8:23 PM PDT
Nautical Twilight 5:04 AM PDT 9:01 PM PDT
Astronomical Twilight 4:22 AM PDT 9:43 PM PDT
Moon 4:37 PM PDT 12:49 AM PDT
Length of Visible Light 14h 39m
Length of Day
13h 36m
Waxing Gibbous, 74% of the Moon is Illuminated
Aug 26
Waxing Gibbous
Aug 31
Full
Sep 8
Last Quarter
Sep 15
New
Sep 22
First Quarter

Hourly Weather History & Observations

Time (PDT) Temp. Dew Point Humidity Pressure Visibility Wind Dir Wind Speed Gust Speed Precip Events Conditions
12:53 AM 52.0 °F 39.9 °F 63% 29.78 in 10.0 mi WSW 5.8 mph - N/A   Clear
1:53 AM 50.0 °F 39.9 °F 68% 29.77 in 10.0 mi West 9.2 mph - N/A   Clear
2:53 AM 50.0 °F 39.9 °F 68% 29.78 in 10.0 mi WSW 8.1 mph - N/A   Clear
3:53 AM 46.9 °F 39.0 °F 74% 29.78 in 10.0 mi West 6.9 mph - N/A   Clear
4:53 AM 48.0 °F 39.0 °F 71% 29.77 in 10.0 mi West 8.1 mph - N/A   Clear
5:53 AM 48.0 °F 39.9 °F 74% 29.77 in 10.0 mi WNW 6.9 mph - N/A   Clear
6:53 AM 50.0 °F 41.0 °F 71% 29.78 in 10.0 mi West 6.9 mph - N/A   Clear
7:53 AM 57.9 °F 43.0 °F 58% 29.78 in 10.0 mi Calm Calm - N/A   Clear
8:53 AM 66.0 °F 42.1 °F 42% 29.78 in 10.0 mi Calm Calm - N/A   Clear
9:53 AM 72.0 °F 43.0 °F 35% 29.76 in 10.0 mi Calm Calm - N/A   Clear
10:53 AM 79.0 °F 39.9 °F 25% 29.75 in 10.0 mi Calm Calm - N/A   Clear
11:53 AM 80.6 °F 39.2 °F 23% 29.75 in 10.0 mi Variable 3.5 mph - N/A   Clear
12:53 PM 84.9 °F 35.1 °F 17% 29.72 in 10.0 mi Variable 3.5 mph - N/A   Clear
1:53 PM 88.0 °F 33.1 °F 14% 29.71 in 10.0 mi East 5.8 mph - N/A   Clear
2:53 PM 88.0 °F 37.0 °F 16% 29.70 in 10.0 mi ESE 9.2 mph - N/A   Clear
3:53 PM 87.1 °F 39.0 °F 18% 29.69 in 10.0 mi East 6.9 mph - N/A   Clear
4:53 PM 89.1 °F 37.9 °F 16% 29.68 in 10.0 mi East 8.1 mph - N/A   Clear
5:53 PM 87.1 °F 39.0 °F 18% 29.67 in 10.0 mi South 3.5 mph - N/A   Clear
6:53 PM 81.0 °F 36.0 °F 20% 29.70 in 10.0 mi WSW 6.9 mph - N/A   Clear
7:53 PM 75.0 °F 39.9 °F 28% 29.73 in 10.0 mi West 5.8 mph - N/A   Haze
8:53 PM 73.9 °F 36.0 °F 25% 29.76 in 10.0 mi Calm Calm - N/A   Clear
9:53 PM 73.0 °F 28.9 °F 20% 29.79 in 10.0 mi WSW 3.5 mph - N/A   Clear
10:53 PM 69.1 °F 36.0 °F 30% 29.82 in 10.0 mi Calm Calm - N/A   Clear
11:53 PM 66.0 °F 41.0 °F 40% 29.84 in 10.0 mi Calm Calm - N/A   Clear